Regional Weather Roundup
Issued by NWS

Home | Current Version | Previous Version | Graphics & Text | Print | Product List | Glossary On
Versions: 1 2 3 4 5 6 7 8 9 10 11 12 13 14 15 16 17 18 19 20 21 22 23 24 25 26 27 28 29 30 31 32 33 34 35 36 37 38 39 40 41 42 43 44 45 46 47 48 49 50
000
ASUS43 KBIS 251410
RWRND

NORTH DAKOTA REGIONAL WEATHER ROUNDUP
NATIONAL WEATHER SERVICE BISMARCK ND
900 AM CDT SUN SEP 25 2016

NOTE: "FAIR" INDICATES FEW OR NO CLOUDS BELOW 12,000 FEET WITH NO
SIGNIFICANT WEATHER AND/OR OBSTRUCTIONS TO VISIBILITY.


NDZ001>003-009>011-017-251500-
NORTHWEST NORTH DAKOTA

CITY           SKY/WX    TMP DP  RH WIND       PRES   REMARKS
WILLISTON      SUNNY     48  38  68 NW21G28   30.15R
MINOT          PTSUNNY   50  44  80 W30G39    29.96R
MINOT AFB      PTSUNNY   48  44  85 NW24G38   29.94R
$$

NDZ018>021-031>035-040>046-251500-
SOUTHWEST NORTH DAKOTA

CITY           SKY/WX    TMP DP  RH WIND       PRES   REMARKS
BISMARCK       CLOUDY    51  46  83 NW21G30   29.99R
DICKINSON      SUNNY     45  39  79 W21G29    30.13R
GARRISON         N/A     48  44  86 NW28G36   29.99R
HETTINGER ARPT SUNNY     47  38  71 W22G28    30.18R
$$

NDZ004>008-012>016-024-026-027-054-251500-
NORTHEAST NORTH DAKOTA

CITY           SKY/WX    TMP DP  RH WIND       PRES   REMARKS
GRAND FORKS    LGT RAIN  53  49  86 SW15      29.68S
GRND FRKS AFB  DRIZZLE   52  50  93 SW13      29.68R
DEVILS LAKE    LGT RAIN  52  50  93 NW21G31   29.77R
$$

NDZ022-023-025-028>030-036>039-047>053-251500-
SOUTHEAST NORTH DAKOTA

CITY           SKY/WX    TMP DP  RH WIND       PRES   REMARKS
FARGO          PTSUNNY   56  50  80 SW17      29.76S
JAMESTOWN      CLOUDY    53  49  86 NW28G43   29.82R
$$





USA.gov is the U.S. government's official web portal to all federal, state and local government web resources and services.